map of BFP home
BFP - Airport
Location
City:  Beaver Falls, Pennsylvania, United States
Name:Beaver County Airport
ICAO:KBVI
IATA:BFP
FAA LID:BVI

Details
Type:Airport (Airfield)
Use:Public/Civil
Latitude:4046'21"N (40.772472)
Longitude:8023'29"W (-80.391443)
Datum:WGS 1984
Elevation:1252 ft (382 m)
Variation:9.09W (WMM2015 magnetic declination)
-0.02 annual change
Runways:1
Longest:4501 × 100 ft (1372 × 30.5 m), paved

Time
Time Zone:UTC-5 (DST-4)
Local Time:

Weather
METAR:KBVI 210147Z 21004KT 10SM OVC050 11/10 A2979 RMK LAST
TAF:KBVI 202339Z 2100/2124 17006KT P6SM OVC050
FM210600 00000KT 3SM -DZ BR OVC008
FM211500 15004KT P6SM BKN015
FM212100 18005KT P6SM BKN035

Related Locations
Nearby:
Farthest:MQZ: 11467 mi / 18455 km
Margaret River [Margaret River Airport], WA, AU

Find:

   beyond  
but within

Other Information
Maps:
NOTAMs:
Links:
Sources:

  
flag of United States
flag of Pennsylvania
  

Airport Diagram

Airport diagram for BFP

Airport diagram PDF

Sectional Chart

Flight Planning
at skyvector.com

Satellite Image

Google Maps Satellite view

 

Copyright © 2004-2017 Karl L. Swartz. All rights reserved.
The Great Circle Mapper name and logo are trademarks of the Great Circle Mapper.
All other trademarks mentioned herein belong to their respective owners.
Please see credits for attibutions and further copyright information.

  Follow gcmap on Facebook Follow gcmap on Twitter Follow gcmap on Google+ GCmap on LinkedIn

hCard Microformat

Geo Microformat